Flag for Canada Weather past 2 weeks in Kitchener, Ontario, Canada

57 °F

Partly sunny.

Feels Like: 54 °F
Forecast: 42 / 56 °F
Wind: 13 mph from Northwest

Location: Waterloo Well

Current Time: Oct 9, 2015 at 12:39:10 PM

Latest Report: Oct 9, 2015 at 12:00 PM

Visibility: 9 mi

Pressure: 29.88 "Hg

Humidity: 88%

Dew point: 54 °F

Location of KitchenerLocation

Historic Weather in Kitchener — Graph


Kitchener temperature yesterday

Maximum temperature yesterday: 63 °F (at 2:00 PM)
Minimum temperature yesterday: 36 °F (at 4:56 AM)
Average temperature yesterday: 47 °F

Past Weeks' High & Low Weather Summary

High75 °F (Sep 24, 1:00 PM)100% (Sep 26, 10:00 PM)30.46 "Hg (Sep 26, 10:00 PM)
Low36 °F (Oct 8, 4:56 AM)41% (Oct 1, 4:00 PM)29.79 "Hg (Oct 9, 5:00 AM)
Average55 °F81%30.20 "Hg
* Reported Sep 24 11:00 AM — Oct 9 11:00 AM, Kitchener, Weather by CustomWeather, © 2015

Note: Actual official high and low records may vary slightly from our data, if they occured in-between our weather recording intervals... More about our weather records


Kitchener weather history for previous 24 hours

Time TempWeatherWind HumidityBarometerVisibility
11:00 AM
Fri, Oct 9
57 °FPartly sunny.16 mph88%29.86 "Hg9 mi
10:00 AM57 °FBroken clouds.14 mph94%29.84 "Hg9 mi
9:00 AM57 °FFog.7 mph94%29.83 "Hg6 mi
8:55 AM57 °FFog.8 mph94%29.82 "Hg6 mi
8:04 AM57 °FFog.8 mph94%29.81 "Hg3 mi
7:55 AM57 °FFog.7 mph94%29.81 "Hg3 mi
7:00 AM57 °FFog.7 mph94%29.80 "Hg1 mi
6:00 AM54 °FFog.2 mph94%29.80 "Hg1 mi
5:47 AM52 °FFog.No wind100%29.80 "Hg1 mi
5:00 AM52 °FLight rain. Fog.3 mph100%29.79 "Hg1 mi
4:03 AM52 °FFog.No wind94%29.80 "Hg2 mi
3:00 AM52 °FLight rain. Fog.2 mph94%29.83 "Hg4 mi
2:54 AM52 °FLight rain. Fog.No wind94%29.83 "Hg4 mi
2:00 AM52 °FLight rain. Fog.5 mph94%29.83 "Hg4 mi
1:04 AM52 °FRain. Fog.3 mph94%29.88 "Hg4 mi
1:02 AM52 °FLight rain. Fog.6 mph94%29.88 "Hg5 mi
12:00 AM52 °FLight rain. Fog.6 mph94%29.90 "Hg5 mi
11:00 PM
Thu, Oct 8
52 °FLight rain. Low clouds.12 mph94%29.92 "Hg8 mi
10:00 PM52 °FLight rain. Fog.13 mph94%29.95 "Hg6 mi
9:00 PM52 °FLight rain. Fog.8 mph94%29.99 "Hg5 mi
8:00 PM54 °FOvercast.14 mph82%30.00 "Hg9 mi
7:00 PM54 °FMore clouds than sun.9 mph82%30.02 "Hg9 mi
6:00 PM57 °FOvercast.13 mph77%30.03 "Hg9 mi
5:00 PM57 °FPartly sunny.10 mph72%30.05 "Hg9 mi
4:00 PM63 °FBroken clouds.9 mph59%30.05 "Hg9 mi
3:00 PM61 °FScattered clouds.8 mph59%30.07 "Hg9 mi
2:00 PM63 °FScattered clouds.6 mph56%30.09 "Hg9 mi
1:00 PM59 °FPassing clouds.7 mph59%30.13 "Hg9 mi
12:00 PM59 °FScattered clouds.10 mph59%30.15 "Hg9 mi
Weather by CustomWeather, © 2015

See weather overviewHow to use our weather pages